Location: OLV Amersfoort
(52.1552°N, 5.3872°E)
Time: 12:53:00
(UTC+02:00)

ISS - Visible Passes

Search period start: 25 July 2017 00:00
Search period end: 04 August 2017 00:00
Orbit: 400 x 408 km, 51.6° (Epoch: 25 July)

Date Brightness Start Highest point End Pass type
(mag) Time Alt. Az. Time Alt. Az. Time Alt. Az.
25 Jul -3.9 00:06:56 10° WSW 00:10:10 60° SSE 00:13:24 10° E visible
25 Jul -4.0 01:43:18 10° W 01:46:35 82° S 01:49:51 10° E visible
25 Jul -3.5 03:19:49 10° W 03:22:54 40° SSW 03:25:59 10° SE visible
25 Jul -1.8 04:57:52 10° WSW 04:58:42 11° SW 04:59:34 10° SSW visible
25 Jul -3.6 23:14:46 10° SW 23:17:53 45° SSE 23:21:03 10° E visible
26 Jul -4.0 00:50:59 10° W 00:54:15 84° S 00:56:43 16° E visible
26 Jul -2.6 02:27:27 10° W 02:29:15 29° W 02:29:15 29° W visible
26 Jul -3.1 22:22:43 10° SW 22:25:40 32° SSE 22:28:37 10° E visible
26 Jul -4.0 23:58:39 10° WSW 00:01:55 78° S 00:05:10 10° E visible
27 Jul -3.7 01:35:06 10° W 01:37:54 58° WSW 01:37:54 58° WSW visible
27 Jul -3.9 23:06:21 10° WSW 23:09:34 65° SSE 23:12:49 10° E visible
28 Jul -4.0 00:42:44 10° W 00:46:00 80° S 00:46:54 45° ESE visible
28 Jul -1.2 02:19:16 10° W 02:19:31 12° W 02:19:31 12° W visible
28 Jul -3.6 22:14:05 10° WSW 22:17:16 50° SSE 22:20:26 10° E visible
28 Jul -4.0 23:50:22 10° W 23:53:38 84° S 23:56:01 17° E visible
29 Jul -2.5 01:26:51 10° W 01:28:38 28° W 01:28:38 28° W visible
29 Jul -3.9 22:58:00 10° W 23:01:15 80° S 23:04:31 10° E visible
30 Jul -4.0 00:34:27 10° W 00:37:41 64° SSW 00:37:49 64° S visible
30 Jul -4.0 23:42:03 10° W 23:45:19 77° S 23:47:00 26° ESE visible
31 Jul -1.7 01:18:36 10° W 01:19:38 17° W 01:19:38 17° W visible
31 Jul -3.9 22:49:38 10° W 22:52:54 83° S 22:56:10 10° E visible
01 Aug -3.3 00:26:07 10° W 00:28:51 42° SW 00:28:51 42° SW visible
01 Aug -3.8 23:33:41 10° W 23:36:54 59° SSW 23:38:05 33° SE visible
02 Aug -1.1 01:10:33 10° W 01:10:43 11° W 01:10:43 11° W visible
02 Aug -3.9 22:41:15 10° W 22:44:30 73° S 22:47:21 13° ESE visible
03 Aug -2.4 00:17:51 10° W 00:19:58 25° SW 00:19:58 25° SW visible
03 Aug -3.2 23:25:18 10° W 23:28:23 40° SSW 23:29:15 32° SSE visible
